Time,TemperatureF,DewpointF,PressureIn,WindDirection,WindDirectionDegrees,WindSpeedMPH,WindSpeedGustMPH,Humidity,HourlyPrecipIn,Conditions,Clouds,dailyrainin,SoftwareType,DateUTC
2013-10-16 00:00:00,-2.7,-6.5,28.96,SSW,195,29.0,29.0,83,0.00,,,0.00,WeatherDisplay:10.37,2013-10-15 11:00:00,
2013-10-16 00:15:00,-2.5,-6.4,28.96,SSW,196,32.0,32.0,83,0.00,,,0.00,WeatherDisplay:10.37,2013-10-15 11:15:00,
2013-10-16 00:30:00,-2.9,-6.8,28.95,South,188,32.0,32.0,83,0.00,,,0.00,WeatherDisplay:10.37,2013-10-15 11:30:00,
2013-10-16 00:45:00,-3.7,-7.5,28.96,South,181,28.0,32.0,83,0.00,,,0.00,WeatherDisplay:10.37,2013-10-15 11:45:00,
2013-10-16 01:00:00,-3.9,-7.8,28.97,South,176,20.0,28.0,83,0.00,CLR,,0.00,WeatherDisplay:10.37,2013-10-15 12:00:00,
2013-10-16 01:15:00,-4.2,-8.0,28.98,ESE,102,5.0,20.0,83,0.00,CLR,,0.00,WeatherDisplay:10.37,2013-10-15 12:15:00,
2013-10-16 01:30:00,-4.5,-8.6,28.97,NE,34,9.0,9.0,82,0.00,CLR,,0.00,WeatherDisplay:10.37,2013-10-15 12:30:00,
2013-10-16 01:45:00,-4.5,-8.6,28.96,NNE,29,14.0,14.0,82,0.00,CLR,,0.00,WeatherDisplay:10.37,2013-10-15 12:45:00,
2013-10-16 02:00:00,-4.3,-8.2,28.95,NNE,24,14.0,14.0,83,0.00,CLR,,0.00,WeatherDisplay:10.37,2013-10-15 13:00:00,
2013-10-16 02:15:00,-3.7,-7.6,28.95,NNE,32,7.0,14.0,83,0.00,CLR,,0.00,WeatherDisplay:10.37,2013-10-15 13:15:00,
2013-10-16 02:30:00,-3.7,-7.5,28.94,NE,38,3.0,7.0,83,0.00,CLR,,0.00,WeatherDisplay:10.37,2013-10-15 13:30:00,
2013-10-16 02:45:00,-3.6,-7.5,28.93,NE,49,7.0,7.0,83,0.00,CLR,,0.00,WeatherDisplay:10.37,2013-10-15 13:45:00,
2013-10-16 03:00:00,-3.6,-7.5,28.92,NE,46,7.0,7.0,83,0.00,CLR,,0.00,WeatherDisplay:10.37,2013-10-15 14:00:00,
2013-10-16 03:15:00,-3.7,-7.6,28.93,NE,52,12.0,12.0,83,0.00,CLR,,0.00,WeatherDisplay:10.37,2013-10-15 14:15:00,
2013-10-16 03:30:00,-3.3,-7.2,28.94,SE,132,5.0,12.0,83,0.00,CLR,,0.00,WeatherDisplay:10.37,2013-10-15 14:30:00,
2013-10-16 03:45:00,-2.5,-6.1,28.92,South,172,20.0,20.0,84,0.00,CLR,,0.00,WeatherDisplay:10.37,2013-10-15 14:45:00,
2013-10-16 04:00:00,-3.0,-6.9,28.93,South,172,22.0,22.0,83,0.00,CLR,,0.00,WeatherDisplay:10.37,2013-10-15 15:00:00,
2013-10-16 04:15:00,-4.4,-8.3,28.93,South,171,24.0,24.0,83,0.00,,,0.00,WeatherDisplay:10.37,2013-10-15 15:15:00,
2013-10-16 04:30:00,-4.9,-9.0,28.94,SSE,158,23.0,24.0,82,0.00,,,0.00,WeatherDisplay:10.37,2013-10-15 15:30:00,
2013-10-16 04:45:00,-5.7,-9.7,28.94,SSE,166,22.0,23.0,82,0.00,CLR,,0.00,WeatherDisplay:10.37,2013-10-15 15:45:00,
2013-10-16 05:00:00,-5.9,-10.0,28.93,SSE,164,22.0,22.0,82,0.00,CLR,,0.00,WeatherDisplay:10.37,2013-10-15 16:00:00,
2013-10-16 05:15:00,-6.7,-11.0,28.93,SE,146,16.0,22.0,81,0.00,CLR,,0.00,WeatherDisplay:10.37,2013-10-15 16:15:00,
2013-10-16 05:30:00,-6.7,-11.0,28.93,SE,127,15.0,16.0,81,0.00,CLR,,0.00,WeatherDisplay:10.37,2013-10-15 16:30:00,
2013-10-16 05:45:00,-6.5,-10.6,28.93,ESE,102,17.0,17.0,82,0.00,CLR,,0.00,WeatherDisplay:10.37,2013-10-15 16:45:00,
2013-10-16 06:00:00,-7.5,-12.0,28.93,ENE,69,14.0,17.0,80,0.00,CLR,,0.00,WeatherDisplay:10.37,2013-10-15 17:00:00,
2013-10-16 06:15:00,-9.0,-13.5,28.93,NE,51,20.0,20.0,80,0.00,CLR,,0.00,WeatherDisplay:10.37,2013-10-15 17:15:00,
2013-10-16 06:30:00,-8.9,-13.4,28.92,NE,46,20.0,20.0,80,0.00,CLR,,0.00,WeatherDisplay:10.37,2013-10-15 17:30:00,
2013-10-16 06:45:00,-9.0,-13.5,28.91,NE,36,23.0,23.0,80,0.00,CLR,,0.00,WeatherDisplay:10.37,2013-10-15 17:45:00,
2013-10-16 07:00:00,-8.8,-13.3,28.91,NE,39,20.0,23.0,80,0.00,CLR,,0.00,WeatherDisplay:10.37,2013-10-15 18:00:00,
2013-10-16 07:15:00,-8.3,-12.8,28.90,NE,48,18.0,20.0,80,0.00,CLR,,0.00,WeatherDisplay:10.37,2013-10-15 18:15:00,
2013-10-16 07:30:00,-8.1,-12.3,28.90,NE,53,15.0,18.0,81,0.00,CLR,,0.00,WeatherDisplay:10.37,2013-10-15 18:30:00,
2013-10-16 07:45:00,-7.7,-12.0,28.89,NE,54,17.0,17.0,81,0.00,CLR,,0.00,WeatherDisplay:10.37,2013-10-15 18:45:00,
2013-10-16 08:00:00,-7.3,-11.6,28.90,ENE,62,16.0,17.0,81,0.00,CLR,,0.00,WeatherDisplay:10.37,2013-10-15 19:00:00,
2013-10-16 08:15:00,-7.2,-11.5,28.91,ENE,59,14.0,16.0,81,0.00,CLR,,0.00,WeatherDisplay:10.37,2013-10-15 19:15:00,
2013-10-16 08:30:00,-7.7,-11.9,28.91,ENE,60,13.0,14.0,81,0.00,CLR,,0.00,WeatherDisplay:10.37,2013-10-15 19:30:00,
2013-10-16 08:45:00,-7.7,-11.9,28.91,ENE,61,16.0,16.0,81,0.00,CLR,,0.00,WeatherDisplay:10.37,2013-10-15 19:45:00,
2013-10-16 09:00:00,-7.6,-11.8,28.92,ENE,63,15.0,16.0,81,0.00,CLR,,0.00,WeatherDisplay:10.37,2013-10-15 20:00:00,
2013-10-16 09:15:00,-7.9,-12.2,28.91,ENE,57,15.0,15.0,81,0.00,CLR,,0.00,WeatherDisplay:10.37,2013-10-15 20:15:00,
2013-10-16 09:30:00,-8.0,-12.3,28.91,NE,50,16.0,16.0,81,0.00,CLR,,0.00,WeatherDisplay:10.37,2013-10-15 20:30:00,
2013-10-16 09:45:00,-7.2,-11.4,28.90,ENE,58,15.0,16.0,81,0.00,CLR,,0.00,WeatherDisplay:10.37,2013-10-15 20:45:00,
2013-10-16 10:00:00,-6.8,-11.1,28.91,ENE,58,14.0,15.0,81,0.00,CLR,,0.00,WeatherDisplay:10.37,2013-10-15 21:00:00,
2013-10-16 10:15:00,-6.6,-10.9,28.90,NE,51,15.0,15.0,81,0.00,CLR,,0.00,WeatherDisplay:10.37,2013-10-15 21:15:00,
2013-10-16 10:30:00,-5.9,-10.0,28.90,NE,44,14.0,15.0,82,0.00,CLR,,0.00,WeatherDisplay:10.37,2013-10-15 21:30:00,
2013-10-16 10:45:00,-4.8,-8.8,28.88,NE,51,14.0,14.0,82,0.00,CLR,,0.00,WeatherDisplay:10.37,2013-10-15 21:45:00,
2013-10-16 11:00:00,-3.9,-7.8,28.88,East,85,14.0,14.0,83,0.00,CLR,,0.00,WeatherDisplay:10.37,2013-10-15 22:00:00,
2013-10-16 11:15:00,-3.6,-7.5,28.89,ESE,123,14.0,14.0,83,0.00,CLR,,0.00,WeatherDisplay:10.37,2013-10-15 22:15:00,
2013-10-16 11:30:00,-3.1,-7.0,28.89,ESE,121,12.0,14.0,83,0.00,CLR,,0.00,WeatherDisplay:10.37,2013-10-15 22:30:00,
2013-10-16 11:45:00,-1.6,-5.0,28.88,SE,143,13.0,13.0,85,0.00,CLR,,0.00,WeatherDisplay:10.37,2013-10-15 22:45:00,
2013-10-16 12:00:00,-1.6,-5.2,28.88,SE,128,12.0,13.0,84,0.00,CLR,,0.00,WeatherDisplay:10.37,2013-10-15 23:00:00,
2013-10-16 12:15:00,-0.9,-4.6,28.86,South,185,26.0,26.0,84,0.00,,,0.00,WeatherDisplay:10.37,2013-10-15 23:15:00,
2013-10-16 12:30:00,-1.4,-5.0,28.87,South,191,25.0,26.0,84,0.00,,,0.00,WeatherDisplay:10.37,2013-10-15 23:30:00,
2013-10-16 12:46:00,-2.1,-5.7,28.87,SE,128,14.0,25.0,84,0.00,CLR,,0.00,WeatherDisplay:10.37,2013-10-15 23:46:00,
2013-10-16 13:00:00,-2.4,-6.3,28.86,East,93,15.0,15.0,83,0.00,CLR,,0.00,WeatherDisplay:10.37,2013-10-16 00:00:00,
2013-10-16 13:15:00,-2.7,-6.3,28.87,ESE,109,14.0,15.0,84,0.00,CLR,,0.00,WeatherDisplay:10.37,2013-10-16 00:15:00,
2013-10-16 13:30:00,-1.5,-4.9,28.87,SSE,149,20.0,20.0,85,0.00,CLR,,0.00,WeatherDisplay:10.37,2013-10-16 00:30:00,
2013-10-16 13:45:00,-1.0,-4.7,28.88,SSE,160,16.0,20.0,84,0.00,CLR,,0.00,WeatherDisplay:10.37,2013-10-16 00:45:00,
2013-10-16 14:00:00,-0.9,-4.3,28.87,SE,132,12.0,16.0,85,0.00,CLR,,0.00,WeatherDisplay:10.37,2013-10-16 01:00:00,
2013-10-16 14:15:00,-1.6,-5.2,28.86,East,92,12.0,12.0,84,0.00,CLR,,0.00,WeatherDisplay:10.37,2013-10-16 01:15:00,
2013-10-16 14:30:00,-1.0,-4.7,28.86,ESE,117,13.0,13.0,84,0.00,CLR,,0.00,WeatherDisplay:10.37,2013-10-16 01:30:00,
2013-10-16 14:45:00,-0.9,-4.6,28.85,SE,125,10.0,13.0,84,0.00,CLR,,0.00,WeatherDisplay:10.37,2013-10-16 01:45:00,
2013-10-16 15:00:00,-1.1,-4.8,28.84,ENE,75,12.0,12.0,84,0.00,CLR,,0.00,WeatherDisplay:10.37,2013-10-16 02:00:00,
2013-10-16 15:15:00,-2.8,-6.6,28.81,NE,48,18.0,18.0,83,0.00,CLR,,0.00,WeatherDisplay:10.37,2013-10-16 02:15:00,
2013-10-16 15:30:00,-3.2,-7.1,28.81,NE,45,22.0,22.0,83,0.00,CLR,,0.00,WeatherDisplay:10.37,2013-10-16 02:30:00,
2013-10-16 15:45:00,-3.2,-7.0,28.80,NE,56,15.0,22.0,83,0.00,CLR,,0.00,WeatherDisplay:10.37,2013-10-16 02:45:00,
2013-10-16 16:00:00,-3.1,-7.0,28.79,NE,52,15.0,15.0,83,0.00,CLR,,0.00,WeatherDisplay:10.37,2013-10-16 03:00:00,
2013-10-16 16:15:00,-2.4,-6.0,28.76,NNE,32,14.0,15.0,84,0.00,CLR,,0.00,WeatherDisplay:10.37,2013-10-16 03:15:00,
2013-10-16 16:30:00,-1.9,-5.8,28.76,NNE,24,15.0,15.0,83,0.00,CLR,,0.00,WeatherDisplay:10.37,2013-10-16 03:30:00,
2013-10-16 16:45:00,-1.0,-4.7,28.75,NNE,20,15.0,15.0,84,0.00,CLR,,0.00,WeatherDisplay:10.37,2013-10-16 03:45:00,
2013-10-16 17:00:00,-0.6,-4.3,28.75,NNE,13,15.0,15.0,84,0.00,CLR,,0.00,WeatherDisplay:10.37,2013-10-16 04:00:00,
2013-10-16 17:15:00,1.2,-2.3,28.75,North,359,3.0,15.0,85,0.00,CLR,,0.00,WeatherDisplay:10.37,2013-10-16 04:15:00,
2013-10-16 17:30:00,1.7,-2.0,28.75,NE,50,3.0,3.0,84,0.00,CLR,,0.00,WeatherDisplay:10.37,2013-10-16 04:30:00,
2013-10-16 17:45:00,1.9,-1.8,28.75,ENE,77,6.0,6.0,84,0.00,CLR,,0.00,WeatherDisplay:10.37,2013-10-16 04:45:00,
2013-10-16 18:00:00,2.3,-1.4,28.75,East,85,3.0,6.0,84,0.00,CLR,,0.00,WeatherDisplay:10.37,2013-10-16 05:00:00,
2013-10-16 18:15:00,3.3,-0.4,28.75,ESE,106,1.0,3.0,84,0.00,CLR,,0.00,WeatherDisplay:10.37,2013-10-16 05:15:00,
2013-10-16 18:30:00,3.1,-0.7,28.75,SE,145,3.0,3.0,84,0.00,CLR,,0.00,WeatherDisplay:10.37,2013-10-16 05:30:00,
2013-10-16 18:45:00,2.9,-0.8,28.75,SE,137,7.0,7.0,84,0.00,CLR,,0.00,WeatherDisplay:10.37,2013-10-16 05:45:00,
2013-10-16 19:00:00,2.9,-0.9,28.75,SE,142,9.0,9.0,84,0.00,CLR,,0.00,WeatherDisplay:10.37,2013-10-16 06:00:00,
2013-10-16 19:15:00,2.2,-2.0,28.74,ENE,74,9.0,9.0,82,0.00,CLR,,0.00,WeatherDisplay:10.37,2013-10-16 06:15:00,
2013-10-16 19:30:00,1.2,-3.0,28.73,NE,53,7.0,9.0,82,0.00,CLR,,0.00,WeatherDisplay:10.37,2013-10-16 06:30:00,
2013-10-16 19:45:00,1.0,-3.5,28.72,NE,55,9.0,9.0,81,0.00,CLR,,0.00,WeatherDisplay:10.37,2013-10-16 06:45:00,
2013-10-16 20:00:00,1.0,-3.7,28.72,NE,44,9.0,9.0,80,0.00,CLR,,0.00,WeatherDisplay:10.37,2013-10-16 07:00:00,
2013-10-16 20:15:00,2.1,-2.6,28.73,ESE,115,9.0,9.0,80,0.00,CLR,,0.00,WeatherDisplay:10.37,2013-10-16 07:15:00,
2013-10-16 20:30:00,2.7,-2.4,28.74,SSE,147,15.0,15.0,79,0.00,CLR,,0.00,WeatherDisplay:10.37,2013-10-16 07:30:00,
2013-10-16 20:45:00,1.2,-3.8,28.73,SSE,156,16.0,16.0,79,0.00,CLR,,0.00,WeatherDisplay:10.37,2013-10-16 07:45:00,
2013-10-16 21:00:00,1.1,-4.2,28.73,SSE,154,12.0,16.0,78,0.00,CLR,,0.00,WeatherDisplay:10.37,2013-10-16 08:00:00,
2013-10-16 21:15:00,1.1,-5.3,28.73,ESE,115,10.0,12.0,74,0.00,CLR,,0.00,WeatherDisplay:10.37,2013-10-16 08:15:00,
2013-10-16 21:30:00,1.1,-5.9,28.72,SE,126,13.0,13.0,72,0.00,CLR,,0.00,WeatherDisplay:10.37,2013-10-16 08:30:00,
2013-10-16 21:45:00,1.3,-6.8,28.71,East,100,8.0,13.0,68,0.00,CLR,,0.00,WeatherDisplay:10.37,2013-10-16 08:45:00,
2013-10-16 22:00:00,0.9,-7.5,28.71,ENE,73,10.0,10.0,67,0.00,CLR,,0.00,WeatherDisplay:10.37,2013-10-16 09:00:00,
2013-10-16 22:15:00,0.2,-7.8,28.69,NE,42,17.0,17.0,68,0.00,CLR,,0.00,WeatherDisplay:10.37,2013-10-16 09:15:00,
2013-10-16 22:30:00,0.4,-8.0,28.68,NE,34,16.0,17.0,67,0.00,CLR,,0.00,WeatherDisplay:10.37,2013-10-16 09:30:00,
2013-10-16 22:45:00,1.1,-9.6,28.68,NE,46,12.0,16.0,60,0.00,CLR,,0.00,WeatherDisplay:10.37,2013-10-16 09:45:00,
2013-10-16 23:00:00,1.3,-9.7,28.68,East,80,7.0,12.0,59,0.00,CLR,,0.00,WeatherDisplay:10.37,2013-10-16 10:00:00,
2013-10-16 23:15:00,1.6,-9.8,28.67,NE,44,5.0,7.0,58,0.00,CLR,,0.00,WeatherDisplay:10.37,2013-10-16 10:15:00,
2013-10-16 23:30:00,0.7,-10.3,28.68,NE,34,8.0,8.0,59,0.00,CLR,,0.00,WeatherDisplay:10.37,2013-10-16 10:30:00,
2013-10-16 23:45:00,0.4,-10.6,28.69,ENE,76,10.0,10.0,59,0.00,CLR,,0.00,WeatherDisplay:10.37,2013-10-16 10:45:00,